Regional Weather Roundup
Issued by NWS Upton, NY

Current Version | Previous Version | Text Only | Print | Product List | Glossary On
Versions: 1 2 3 4 5 6 7 8 9 10 11 12 13 14 15 16 17 18 19 20 21 22 23 24 25 26 27 28 29 30 31 32 33 34 35 36 37 38 39 40 41 42 43 44 45 46 47 48 49 50
000
ASUS41 KOKX 281808
RWROKX

REGIONAL WEATHER ROUNDUP
NATIONAL WEATHER SERVICE NEW YORK NY
200 PM EDT THU MAY 28 2015

NOTE: "FAIR" INDICATES FEW OR NO CLOUDS BELOW 12,000 FEET WITH NO
SIGNIFICANT WEATHER AND/OR OBSTRUCTIONS TO VISIBILITY.

NYZ071-072-176-178-NJZ106-104-281900-
NEW YORK CITY METRO AREA


CITY           SKY/WX    TMP DP  RH WIND       PRES   REMARKS
CENTRAL PARK   MOSUNNY   84  68  58 VRB3      30.16F
LAGUARDIA APRT PTSUNNY   81  65  58 S12G17    30.13F
KENNEDY INTL   PTSUNNY   75  62  64 S10       30.17S
NEWARK/LIBERTY PTSUNNY   85  68  56 VRB6      30.13F
BRNX BOT. GARD   N/A     81  66  61 NW3       30.13F
TETERBORO      MOSUNNY   85  69  58 SW8       30.11F
$$

NYZ177-179-078>081-281900-
LONG ISLAND NEW YORK

CITY           SKY/WX    TMP DP  RH WIND       PRES   REMARKS
FARMINGDALE    CLOUDY    73  65  75 S12       30.16F
ISLIP          CLOUDY    72  64  76 S12       30.15F
SHIRLEY        PTSUNNY   72  64  76 S10       30.17F
WESTHAMPTON    CLOUDY    68  62  81 SW10G18   30.18F
MONTAUK POINT    N/A     67  60  78 S10G17    30.19F
$$

NYZ052-065-067-281900-
HUDSON VALLEY

CITY           SKY/WX    TMP DP  RH WIND       PRES   REMARKS
WHITE PLAINS   MOSUNNY   79  68  69 SE6       30.14F HAZE
NEWBURGH       MOSUNNY   77  73  88 W14       30.13F
MONTGOMERY     PTSUNNY   85  67  54 SW14      30.10F
POUGHKEEPSIE   MOSUNNY   85  65  51 SW12G20   30.09F
ALBANY         PTSUNNY   83  60  45 W25G31    30.08F
$$

NJZ001-105-106-008-010-013-015-019>022-104-281900-
NEW JERSEY

CITY           SKY/WX    TMP DP  RH WIND       PRES   REMARKS
NEWARK/LIBERTY PTSUNNY   85  68  56 VRB6      30.13F
TETERBORO      MOSUNNY   85  69  58 SW8       30.11F
CALDWELL       MOSUNNY   85  67  54 S13G21    30.13F
MORRISTOWN     MOSUNNY   90  70  51 SW9G18    30.13F HX  95
SOMERVILLE     PTSUNNY   87  66  49 W5        30.12F
SUSSEX         PTSUNNY   84  65  52 VRB7      30.14F
ANDOVER          N/A     82  66  58 S7        30.15F
TRENTON        MOSUNNY   86  68  54 S8        30.13F
MILLVILLE      MOSUNNY   85  70  60 VRB5      30.17F
ATLANTIC CITY  MOSUNNY   84  68  58 S13       30.17S
WRIGHTSTOWN    MOSUNNY   88  69  53 SW8       30.12F HX  91
TOMS RIVER     PTSUNNY   88  66  48 W7G18     30.14F HX  90
BELMAR         MOSUNNY   84  68  58 S9        30.15S
$$

PAZ047>061-062-071-281900-
EASTERN PENNSYLVANIA

CITY           SKY/WX    TMP DP  RH WIND       PRES   REMARKS
PHILADELPHIA   PTSUNNY   85  66  53 S7        30.14F
ALLENTOWN      PTSUNNY   85  65  51 SW9       30.15F
SCRANTON       PTSUNNY   85  56  37 NW7G17    30.17S
$$

CTZ002-004>006-009-010-012-RIZ004-006-007-MAZ004-011-015-281900-
SOUTHERN NEW ENGLAND
 IN CT

CITY           SKY/WX    TMP DP  RH WIND       PRES   REMARKS
BRADLEY INTL   PTSUNNY   81  66  60 S16G24    30.09F
HARTFORD       MOSUNNY   79  67  66 S13G21    30.11F
DANBURY        MOSUNNY   80  68  66 S9        30.14F
WTRBRY/OXFORD  NOT AVBL
BRIDGEPORT     MOSUNNY   75  66  73 SW7       30.15F
MERIDEN        PTSUNNY   78  66  66 S12       30.14F
NEW HAVEN      PTSUNNY   74  66  76 VRB6      30.15F
CHESTER        FAIR      73  66  78 SW7       30.17S
GROTON         CLOUDY    67  62  84 S6        30.16F FOG
WILLIMANTIC    MOSUNNY   79  66  64 S13       30.13F

 IN RI

CITY           SKY/WX    TMP DP  RH WIND       PRES   REMARKS
PROVIDENCE     PTSUNNY   80  65  59 S16G23    30.13F
BLOCK ISLAND   CLOUDY    63  55  77 SW18      30.19F
WESTERLY       CLOUDY    66  60  81 S12       30.18F

 IN MA

CITY           SKY/WX    TMP DP  RH WIND       PRES   REMARKS
BOSTON         MOSUNNY   85  66  53 SW17G25   30.07F
WORCESTER      MOSUNNY   82  63  52 SW15      30.12F
WESTFIELD      SUNNY     83  68  60 S16       30.08F
PROVINCETOWN   CLOUDY    68  57  68 S18G26    30.15F
NANTUCKET      CLOUDY    64  58  80 S18       30.20F
$$

ANZ330-335-338-340-345-350-353-355-281900-
COASTAL MARINE OBSERVATIONS


STATION/POSITION TIME  SKY/WX   TEMP    WIND        PRES    VSBY  WAVE
                                AIR SEA DIR/SP/G                  HT/PER
                 (UTC)          (F)     (DEG/KT/KT) (MB)    (MI)  (FT/S)
NY HARB ENTRANCE 1750            62 55  190/ 14/ 14 1020.6          3/ 6
4S FIRE IS       1703               57                N/A           4/ 6
20S FIRE ISLAND  1750            61 58  220/ 10/ 10 1021.9          4/ 5
GREAT SOUTH BAY  1700            63 67  240/ 14/ 17   N/A
23SW MTP         1750            58 54  210/ 10/ 10 1022.2          3/ 6
HUDSON CANYON    NOT AVBL
KINGS POINT      1700            70 59  200/  9/ 11 1020.4
CENTRAL LI SOUND 1715            63 59  140/  4/  6   N/A
EASTERN LI SOUND 1700            62     180/  6/ 10   N/A
ROBBINS REEF     1700            72     160/ 14/ 15 1019.6
$$


>>>>>>>>>>>>>>>>>>>>>>>>>>>> KEY <<<<<<<<<<<<<<<<<<<<<<<<<<<
>                                                          <
>     SKY/WX - SKY CONDITION/PRESENT WEATHER               <
>     TMP    - TEMPERATURE IN FAHRENHEIT                   <
>     DP     - DEWPOINT IN FAHRENHEIT                      <
>     RH     - RELATIVE HUMIDITY IN PERCENT                <
>     WIND   - DIRECTION AND SPEED IN MPH                  <
>     PRES   - MEAN SEA LEVEL PRESSURE IN INCHES OF HG     <
>     WCI    - WIND CHILL INDEX                            <
>     VSB    - VISIBILITY IN MILES                         <
>     HX     - HEAT INDEX                                  <
>     TC     - TEMPERATURE IN CELSIUS                      <
>     VRB    - VARIABLE WIND DIRECTION                     <
>                                                          <
>>>>>>>>>>>>>>>>>>>>>>>>>>>> KEY <<<<<<<<<<<<<<<<<<<<<<<<<<<





USA.gov is the U.S. government's official web portal to all federal, state and local government web resources and services.